RYR6RS EGSS-LEAM

Flight info

Callsign RYR6RS
Flight time 2h 34m
Altitude 37000
Route NUGBO M183 SILVA Q41 COWLY UT71 VAPID UN859 SOPIL DCT BALAN DCT LMG DCT PIMQO DCT AGN DCT ANETO N860 DOSEK
Aircraft B38M/M-SDE1FGHILORVWXY/HB1

Departure

Time 2026-04-20 19:55
Airport London Stansted Airport (EGSS)

Arrival

Time 2026-04-20 22:29
Airport Almería Airport (LEAM)
Time Latitude Longitude Altitude Speed Heading
2026-04-20 19:00 51.89262 0.25916 359 ft 0 kts 42°
2026-04-20 19:40 51.89262 0.25915 355 ft 1 kts 42°
2026-04-20 19:41 51.89243 0.25891 362 ft 4 kts 30°
2026-04-20 19:41 51.89220 0.25880 360 ft 4 kts 345°
2026-04-20 19:41 51.89210 0.25889 362 ft 0 kts 314°
2026-04-20 19:46 51.89223 0.25866 359 ft 7 kts 313°
2026-04-20 19:46 51.89267 0.25790 358 ft 0 kts 313°
2026-04-20 19:47 51.89273 0.25779 356 ft 4 kts 313°
2026-04-20 19:47 51.89303 0.25726 355 ft 9 kts 313°
2026-04-20 19:47 51.89357 0.25625 357 ft 13 kts 300°
2026-04-20 19:47 51.89326 0.25504 355 ft 13 kts 225°
2026-04-20 19:48 51.89257 0.25399 359 ft 14 kts 223°
2026-04-20 19:48 51.89180 0.25284 357 ft 16 kts 223°
2026-04-20 19:48 51.89097 0.25159 358 ft 17 kts 223°
2026-04-20 19:48 51.89007 0.25025 355 ft 18 kts 223°
2026-04-20 19:49 51.88911 0.24880 358 ft 19 kts 223°
2026-04-20 19:49 51.88809 0.24727 362 ft 21 kts 223°
2026-04-20 19:49 51.88716 0.24588 350 ft 14 kts 224°
2026-04-20 19:49 51.88640 0.24472 350 ft 16 kts 223°
2026-04-20 19:50 51.88555 0.24346 353 ft 17 kts 222°
2026-04-20 19:50 51.88461 0.24205 352 ft 19 kts 223°
2026-04-20 19:50 51.88358 0.24049 343 ft 21 kts 223°
2026-04-20 19:50 51.88252 0.23890 345 ft 15 kts 223°
2026-04-20 19:51 51.88169 0.23766 341 ft 17 kts 223°
2026-04-20 19:51 51.88077 0.23628 340 ft 19 kts 223°
2026-04-20 19:51 51.87977 0.23479 340 ft 20 kts 222°
2026-04-20 19:51 51.87870 0.23318 335 ft 22 kts 223°
2026-04-20 19:52 51.87764 0.23161 336 ft 12 kts 223°
2026-04-20 19:52 51.87733 0.23063 338 ft 6 kts 273°
2026-04-20 19:52 51.87752 0.23001 337 ft 7 kts 310°
2026-04-20 19:52 51.87788 0.22935 336 ft 9 kts 312°
2026-04-20 19:53 51.87835 0.22854 338 ft 11 kts 313°
2026-04-20 19:53 51.87868 0.22796 337 ft 1 kts 312°
2026-04-20 19:53 51.87872 0.22789 337 ft 5 kts 312°
2026-04-20 19:53 51.87920 0.22703 337 ft 13 kts 312°
2026-04-20 19:54 51.87947 0.22680 337 ft 5 kts 354°
2026-04-20 19:54 51.87986 0.22709 335 ft 7 kts 36°
2026-04-20 19:54 51.88117 0.22902 337 ft 60 kts 43°
2026-04-20 19:54 51.88611 0.23643 345 ft 131 kts 43°
2026-04-20 19:55 51.89429 0.24854 463 ft 181 kts 42°
2026-04-20 19:55 51.90400 0.26289 1369 ft 188 kts 43°
2026-04-20 19:55 51.91313 0.27687 2606 ft 186 kts 44°
2026-04-20 19:55 51.92392 0.29067 3075 ft 211 kts 26°
2026-04-20 19:56 51.93378 0.29532 3408 ft 227 kts
2026-04-20 19:56 51.95377 0.28646 4635 ft 232 kts 329°
2026-04-20 19:56 51.96521 0.26734 5188 ft 242 kts 303°
2026-04-20 19:56 51.97010 0.24145 5266 ft 247 kts 283°
2026-04-20 19:57 51.97308 0.21394 5157 ft 245 kts 284°
2026-04-20 19:57 51.97619 0.18582 5252 ft 259 kts 283°
2026-04-20 19:57 51.97940 0.15663 5258 ft 265 kts 283°
2026-04-20 19:57 51.98265 0.12703 5268 ft 267 kts 283°
2026-04-20 19:58 51.98591 0.09726 5288 ft 268 kts 283°
2026-04-20 19:58 51.98881 0.06772 5277 ft 270 kts 275°
2026-04-20 19:58 51.98641 0.03754 5310 ft 272 kts 261°
2026-04-20 19:58 51.98260 0.00729 5300 ft 273 kts 261°
2026-04-20 19:59 51.97879 -0.02281 5291 ft 273 kts 261°
2026-04-20 19:59 51.97493 -0.05302 5289 ft 273 kts 261°
2026-04-20 19:59 51.97105 -0.08308 5458 ft 277 kts 261°
2026-04-20 19:59 51.96712 -0.11346 6485 ft 273 kts 261°
2026-04-20 20:00 51.96319 -0.14374 7433 ft 278 kts 260°
2026-04-20 20:00 51.95914 -0.17480 8377 ft 281 kts 260°
2026-04-20 20:00 51.95507 -0.20602 9301 ft 285 kts 260°
2026-04-20 20:00 51.95096 -0.23737 10181 ft 289 kts 260°
2026-04-20 20:01 51.94672 -0.26978 10873 ft 300 kts 260°
2026-04-20 20:01 51.94222 -0.30410 11249 ft 320 kts 259°
2026-04-20 20:01 51.93741 -0.34060 11582 ft 340 kts 259°
2026-04-20 20:01 51.93238 -0.37857 11971 ft 356 kts 260°
2026-04-20 20:02 51.92710 -0.41836 12592 ft 363 kts 260°
2026-04-20 20:02 51.92178 -0.45836 13423 ft 364 kts 259°
2026-04-20 20:02 51.91638 -0.49893 14158 ft 368 kts 259°
2026-04-20 20:02 51.91093 -0.53963 14821 ft 371 kts 259°
2026-04-20 20:03 51.90544 -0.58062 15473 ft 373 kts 259°
2026-04-20 20:03 51.89991 -0.62182 16115 ft 376 kts 259°
2026-04-20 20:03 51.89438 -0.66280 16749 ft 379 kts 259°
2026-04-20 20:03 51.88872 -0.70466 17392 ft 381 kts 259°
2026-04-20 20:04 51.88302 -0.74677 18008 ft 384 kts 259°
2026-04-20 20:04 51.87724 -0.78929 18614 ft 387 kts 259°
2026-04-20 20:04 51.87143 -0.83197 19159 ft 388 kts 260°
2026-04-20 20:04 51.86561 -0.87460 19765 ft 388 kts 260°
2026-04-20 20:05 51.85950 -0.91715 20357 ft 390 kts 256°
2026-04-20 20:05 51.84775 -0.95633 20953 ft 397 kts 238°
2026-04-20 20:05 51.82807 -0.98897 21545 ft 407 kts 221°
2026-04-20 20:05 51.80315 -1.01084 22131 ft 419 kts 206°
2026-04-20 20:06 51.77450 -1.02245 22635 ft 429 kts 197°
2026-04-20 20:06 51.74490 -1.03098 23092 ft 433 kts 197°
2026-04-20 20:06 51.71516 -1.03914 23561 ft 435 kts 196°
2026-04-20 20:06 51.68510 -1.04711 23984 ft 438 kts 196°
2026-04-20 20:07 51.65521 -1.05485 24354 ft 441 kts 196°
2026-04-20 20:07 51.62479 -1.06274 24725 ft 442 kts 198°
2026-04-20 20:07 51.59508 -1.07481 25070 ft 440 kts 203°
2026-04-20 20:07 51.56541 -1.08762 25407 ft 443 kts 202°
2026-04-20 20:08 51.53551 -1.10016 25791 ft 445 kts 202°
2026-04-20 20:08 51.50541 -1.11256 26143 ft 448 kts 202°
2026-04-20 20:08 51.47514 -1.12521 26486 ft 449 kts 203°
2026-04-20 20:08 51.44524 -1.13808 26818 ft 452 kts 203°
2026-04-20 20:09 51.41482 -1.15110 27154 ft 454 kts 203°
2026-04-20 20:09 51.38417 -1.16417 27474 ft 456 kts 203°
2026-04-20 20:09 51.35336 -1.17728 27802 ft 458 kts 203°
2026-04-20 20:09 51.32235 -1.19045 28080 ft 460 kts 203°
2026-04-20 20:10 51.29131 -1.20363 28413 ft 462 kts 203°
2026-04-20 20:10 51.26016 -1.21683 28717 ft 464 kts 203°
2026-04-20 20:10 51.22925 -1.22991 29021 ft 466 kts 203°
2026-04-20 20:10 51.19783 -1.24318 29332 ft 468 kts 203°
2026-04-20 20:11 51.16634 -1.25647 29746 ft 467 kts 203°
2026-04-20 20:11 51.13494 -1.26970 30186 ft 466 kts 203°
2026-04-20 20:11 51.10355 -1.28290 30561 ft 465 kts 203°
2026-04-20 20:11 51.07227 -1.29604 30887 ft 465 kts 203°
2026-04-20 20:12 51.04095 -1.30918 31219 ft 465 kts 203°
2026-04-20 20:12 51.00965 -1.32229 31549 ft 464 kts 203°
2026-04-20 20:12 50.97837 -1.33539 31877 ft 464 kts 203°
2026-04-20 20:13 50.92055 -1.37336 32514 ft 448 kts 214°
2026-04-20 20:13 50.89251 -1.39545 32750 ft 449 kts 214°
2026-04-20 20:13 50.86455 -1.41761 33009 ft 449 kts 214°
2026-04-20 20:13 50.83651 -1.43991 33255 ft 450 kts 214°
2026-04-20 20:14 50.81802 -1.45463 33430 ft 450 kts 214°
2026-04-20 20:14 50.78082 -1.48421 33801 ft 450 kts 214°
2026-04-20 20:14 50.75282 -1.50643 34086 ft 450 kts 214°
2026-04-20 20:14 50.73422 -1.52118 34261 ft 450 kts 214°
2026-04-20 20:15 50.70615 -1.54341 34489 ft 450 kts 214°
2026-04-20 20:15 50.67807 -1.56562 34686 ft 451 kts 213°
2026-04-20 20:15 50.65001 -1.58779 34899 ft 452 kts 213°
2026-04-20 20:15 50.62187 -1.60998 35044 ft 453 kts 213°
2026-04-20 20:16 50.59363 -1.63224 35225 ft 453 kts 213°
2026-04-20 20:16 50.56565 -1.65425 35428 ft 454 kts 212°
2026-04-20 20:16 50.53726 -1.67655 35630 ft 454 kts 212°
2026-04-20 20:16 50.50889 -1.69881 35823 ft 455 kts 212°
2026-04-20 20:17 50.48053 -1.72104 36015 ft 455 kts 212°
2026-04-20 20:17 50.45248 -1.74298 36199 ft 456 kts 212°
2026-04-20 20:17 50.42403 -1.76521 36375 ft 456 kts 212°
2026-04-20 20:17 50.39550 -1.78748 36532 ft 456 kts 211°
2026-04-20 20:18 50.36739 -1.80939 36745 ft 456 kts 211°
2026-04-20 20:18 50.33891 -1.83156 36922 ft 456 kts 211°
2026-04-20 20:18 50.31017 -1.85389 37086 ft 456 kts 211°
2026-04-20 20:18 50.28203 -1.87574 37248 ft 456 kts 211°
2026-04-20 20:19 50.22530 -1.91969 37219 ft 454 kts 211°
2026-04-20 20:19 50.16877 -1.96337 37214 ft 454 kts 211°
2026-04-20 20:20 50.11207 -2.00706 37225 ft 451 kts 211°
2026-04-20 20:20 50.05581 -2.05030 37227 ft 452 kts 211°
2026-04-20 20:21 49.99961 -2.09339 37224 ft 451 kts 211°
2026-04-20 20:21 49.94029 -2.12607 37229 ft 457 kts 201°
2026-04-20 20:22 49.87938 -2.15473 37220 ft 454 kts 201°
2026-04-20 20:22 49.81897 -2.18292 37217 ft 455 kts 201°
2026-04-20 20:23 49.75839 -2.21110 37214 ft 455 kts 201°
2026-04-20 20:23 49.69763 -2.23929 37210 ft 454 kts 201°
2026-04-20 20:24 49.63749 -2.26712 37210 ft 451 kts 201°
2026-04-20 20:24 49.57729 -2.29490 37205 ft 451 kts 201°
2026-04-20 20:25 49.51738 -2.32248 37192 ft 451 kts 201°
2026-04-20 20:25 49.45713 -2.35015 37187 ft 449 kts 202°
2026-04-20 20:26 49.39744 -2.37749 37185 ft 449 kts 202°
2026-04-20 20:26 49.33778 -2.40474 37184 ft 449 kts 202°
2026-04-20 20:27 49.27781 -2.43207 37170 ft 449 kts 201°
2026-04-20 20:27 49.21810 -2.45921 37191 ft 448 kts 201°
2026-04-20 20:28 49.15851 -2.48623 37179 ft 448 kts 201°
2026-04-20 20:28 49.09880 -2.51323 37190 ft 448 kts 201°
2026-04-20 20:29 49.03916 -2.54013 37159 ft 448 kts 201°
2026-04-20 20:29 48.97916 -2.56714 37177 ft 448 kts 201°
2026-04-20 20:30 48.91960 -2.59387 37180 ft 447 kts 201°
2026-04-20 20:30 48.85995 -2.62058 37174 ft 447 kts 201°
2026-04-20 20:31 48.80020 -2.64727 37172 ft 448 kts 201°
2026-04-20 20:31 48.74064 -2.67381 37166 ft 448 kts 201°
2026-04-20 20:32 48.68054 -2.70051 37161 ft 448 kts 201°
2026-04-20 20:32 48.62090 -2.72695 37165 ft 447 kts 201°
2026-04-20 20:33 48.56115 -2.75338 37155 ft 448 kts 201°
2026-04-20 20:33 48.50145 -2.77972 37155 ft 448 kts 201°
2026-04-20 20:34 48.44178 -2.80598 37149 ft 447 kts 201°
2026-04-20 20:34 48.38207 -2.83219 37136 ft 447 kts 201°
2026-04-20 20:35 48.32231 -2.85836 37141 ft 447 kts 201°
2026-04-20 20:35 48.26219 -2.88462 37133 ft 447 kts 201°
2026-04-20 20:36 48.20250 -2.91063 37138 ft 447 kts 201°
2026-04-20 20:36 48.14300 -2.93649 37125 ft 448 kts 201°
2026-04-20 20:37 48.08327 -2.96240 37123 ft 448 kts 201°
2026-04-20 20:37 48.02335 -2.98832 37118 ft 448 kts 201°
2026-04-20 20:38 47.96375 -3.01404 37094 ft 448 kts 201°
2026-04-20 20:38 47.90388 -3.03982 37106 ft 447 kts 201°
2026-04-20 20:39 47.84403 -3.06553 37110 ft 447 kts 201°
2026-04-20 20:39 47.78461 -3.09099 37101 ft 447 kts 201°
2026-04-20 20:40 47.72476 -3.11657 37092 ft 445 kts 201°
2026-04-20 20:40 47.66541 -3.14188 37099 ft 445 kts 201°
2026-04-20 20:41 47.60582 -3.16723 37100 ft 445 kts 201°
2026-04-20 20:41 47.54624 -3.19252 37086 ft 445 kts 201°
2026-04-20 20:42 47.48712 -3.21755 37089 ft 443 kts 201°
2026-04-20 20:42 47.42773 -3.24265 37089 ft 443 kts 201°
2026-04-20 20:43 47.36859 -3.26756 37087 ft 443 kts 201°
2026-04-20 20:43 47.30917 -3.29254 37080 ft 442 kts 201°
2026-04-20 20:44 47.25007 -3.31733 37079 ft 440 kts 201°
2026-04-20 20:44 47.19125 -3.34196 37079 ft 439 kts 201°
2026-04-20 20:45 47.13279 -3.36637 37076 ft 439 kts 201°
2026-04-20 20:45 47.07386 -3.39091 37069 ft 439 kts 200°
2026-04-20 20:46 47.01547 -3.41518 37073 ft 439 kts 200°
2026-04-20 20:46 46.95643 -3.43966 37068 ft 441 kts 200°
2026-04-20 20:47 46.89731 -3.46412 37054 ft 441 kts 200°
2026-04-20 20:47 46.83846 -3.48841 37066 ft 441 kts 200°
2026-04-20 20:48 46.77925 -3.51280 37064 ft 441 kts 200°
2026-04-20 20:48 46.72007 -3.53712 37058 ft 441 kts 200°
2026-04-20 20:49 46.66138 -3.56119 37057 ft 441 kts 200°
2026-04-20 20:49 46.60228 -3.58537 37056 ft 441 kts 200°
2026-04-20 20:50 46.54313 -3.60952 37050 ft 441 kts 200°
2026-04-20 20:50 46.48432 -3.63347 37039 ft 441 kts 200°
2026-04-20 20:51 46.42516 -3.65753 37038 ft 441 kts 200°
2026-04-20 20:51 46.36605 -3.68150 37040 ft 441 kts 200°
2026-04-20 20:52 46.30555 -3.69272 36997 ft 450 kts 175°
2026-04-20 20:52 46.24321 -3.67867 37019 ft 455 kts 175°
2026-04-20 20:53 46.18062 -3.66354 37028 ft 456 kts 174°
2026-04-20 20:53 46.11800 -3.64794 37031 ft 456 kts 174°
2026-04-20 20:54 46.05536 -3.63231 37029 ft 456 kts 174°
2026-04-20 20:54 45.99309 -3.61680 37013 ft 456 kts 174°
2026-04-20 20:55 45.93049 -3.60125 37020 ft 456 kts 174°
2026-04-20 20:55 45.86789 -3.58573 37009 ft 457 kts 174°
2026-04-20 20:56 45.80553 -3.57031 37018 ft 457 kts 174°
2026-04-20 20:56 45.74275 -3.55482 37015 ft 457 kts 174°
2026-04-20 20:57 45.68005 -3.53939 37010 ft 457 kts 174°
2026-04-20 20:57 45.61733 -3.52398 37003 ft 456 kts 174°
2026-04-20 20:58 45.55456 -3.50860 37005 ft 456 kts 174°
2026-04-20 20:58 45.49213 -3.49333 37000 ft 457 kts 174°
2026-04-20 20:59 45.42939 -3.47803 37000 ft 457 kts 174°
2026-04-20 20:59 45.36704 -3.46285 37000 ft 457 kts 174°
2026-04-20 21:00 45.30440 -3.44764 36990 ft 456 kts 174°
2026-04-20 21:00 45.24176 -3.43246 36995 ft 455 kts 174°
2026-04-20 21:01 45.17953 -3.41741 36993 ft 455 kts 174°
2026-04-20 21:01 45.12757 -3.40488 36978 ft 455 kts 174°
2026-04-20 21:02 45.06508 -3.38982 36990 ft 455 kts 175°
2026-04-20 21:02 45.00256 -3.37480 36988 ft 455 kts 175°
2026-04-20 21:03 44.94053 -3.35993 36975 ft 455 kts 175°
2026-04-20 21:03 44.87806 -3.34499 36982 ft 454 kts 175°
2026-04-20 21:04 44.81569 -3.33010 36983 ft 454 kts 175°
2026-04-20 21:04 44.75328 -3.31523 36983 ft 454 kts 175°
2026-04-20 21:05 44.69086 -3.30040 36979 ft 454 kts 175°
2026-04-20 21:05 44.62883 -3.28569 36979 ft 454 kts 175°
2026-04-20 21:06 44.56637 -3.27092 36964 ft 454 kts 175°
2026-04-20 21:06 44.50407 -3.25621 36978 ft 453 kts 175°
2026-04-20 21:07 44.44184 -3.24154 36981 ft 453 kts 175°
2026-04-20 21:07 44.37987 -3.22698 36978 ft 453 kts 175°
2026-04-20 21:08 44.31757 -3.21236 36979 ft 453 kts 175°
2026-04-20 21:08 44.25520 -3.19776 36978 ft 453 kts 175°
2026-04-20 21:09 44.19331 -3.18330 36976 ft 453 kts 175°
2026-04-20 21:09 44.13103 -3.16878 36975 ft 453 kts 175°
2026-04-20 21:10 44.06895 -3.15294 36960 ft 456 kts 166°
2026-04-20 21:10 44.04023 -3.13381 36958 ft 463 kts 148°
2026-04-20 21:10 44.01485 -3.10690 36983 ft 467 kts 146°
2026-04-20 21:11 43.96353 -3.05078 36976 ft 469 kts 144°
2026-04-20 21:11 43.91268 -2.99393 36967 ft 469 kts 144°
2026-04-20 21:12 43.86488 -2.94031 36974 ft 469 kts 144°
2026-04-20 21:12 43.81399 -2.88331 36970 ft 469 kts 144°
2026-04-20 21:13 43.76792 -2.83185 36974 ft 468 kts 145°
2026-04-20 21:13 43.71718 -2.77521 36964 ft 468 kts 145°
2026-04-20 21:14 43.66638 -2.71862 36978 ft 468 kts 145°
2026-04-20 21:14 43.61547 -2.66205 36959 ft 468 kts 144°
2026-04-20 21:15 43.56489 -2.60599 36977 ft 471 kts 144°
2026-04-20 21:15 43.51384 -2.54953 36973 ft 470 kts 144°
2026-04-20 21:16 43.46267 -2.49306 36970 ft 470 kts 144°
2026-04-20 21:16 43.41177 -2.43701 36970 ft 470 kts 144°
2026-04-20 21:17 43.36055 -2.38074 36963 ft 470 kts 144°
2026-04-20 21:17 43.30935 -2.32462 36964 ft 470 kts 145°
2026-04-20 21:18 43.25817 -2.26863 36960 ft 470 kts 145°
2026-04-20 21:18 43.20696 -2.21274 36957 ft 470 kts 145°
2026-04-20 21:19 43.15596 -2.15721 36965 ft 470 kts 145°
2026-04-20 21:20 43.07913 -2.07380 36970 ft 470 kts 145°
2026-04-20 21:20 43.02810 -2.01856 36962 ft 470 kts 145°
2026-04-20 21:21 42.97670 -1.96304 36949 ft 469 kts 145°
2026-04-20 21:21 42.92574 -1.90812 36956 ft 468 kts 145°
2026-04-20 21:22 42.87451 -1.85296 36950 ft 469 kts 145°
2026-04-20 21:22 42.82318 -1.79782 36941 ft 469 kts 145°
2026-04-20 21:23 42.76960 -1.74873 36915 ft 456 kts 165°
2026-04-20 21:23 42.73941 -1.74011 36944 ft 445 kts 182°
2026-04-20 21:23 42.70852 -1.74104 36939 ft 444 kts 188°
2026-04-20 21:23 42.67842 -1.74829 36933 ft 436 kts 202°
2026-04-20 21:24 42.65012 -1.76293 36945 ft 435 kts 206°
2026-04-20 21:24 42.59495 -1.79647 36928 ft 434 kts 209°
2026-04-20 21:25 42.54081 -1.83190 36931 ft 434 kts 210°
2026-04-20 21:25 42.48656 -1.86806 36935 ft 433 kts 210°
2026-04-20 21:26 42.43273 -1.90400 36929 ft 433 kts 210°
2026-04-20 21:26 42.37857 -1.94011 36917 ft 433 kts 210°
2026-04-20 21:27 42.32444 -1.97617 36924 ft 432 kts 210°
2026-04-20 21:27 42.27031 -2.01216 36937 ft 433 kts 210°
2026-04-20 21:28 42.21668 -2.04766 36940 ft 433 kts 210°
2026-04-20 21:28 42.16246 -2.08349 36936 ft 432 kts 210°
2026-04-20 21:29 42.10868 -2.11901 36939 ft 432 kts 210°
2026-04-20 21:29 42.05458 -2.15465 36965 ft 433 kts 210°
2026-04-20 21:30 42.00037 -2.19030 36975 ft 433 kts 209°
2026-04-20 21:30 41.94655 -2.22563 36953 ft 432 kts 209°
2026-04-20 21:31 41.89233 -2.26115 36971 ft 433 kts 209°
2026-04-20 21:31 41.83824 -2.29652 36982 ft 432 kts 209°
2026-04-20 21:32 41.78458 -2.33155 36929 ft 430 kts 209°
2026-04-20 21:32 41.75764 -2.34911 36723 ft 430 kts 209°
2026-04-20 21:32 41.73076 -2.36661 36475 ft 428 kts 209°
2026-04-20 21:32 41.70398 -2.38404 36233 ft 428 kts 209°
2026-04-20 21:33 41.67711 -2.40150 35986 ft 429 kts 209°
2026-04-20 21:33 41.65026 -2.41894 35741 ft 429 kts 209°
2026-04-20 21:33 41.62368 -2.43618 35512 ft 430 kts 209°
2026-04-20 21:33 41.59666 -2.45369 35277 ft 431 kts 209°
2026-04-20 21:34 41.56969 -2.47116 35057 ft 431 kts 209°
2026-04-20 21:34 41.54256 -2.48872 34950 ft 431 kts 209°
2026-04-20 21:34 41.51551 -2.50621 34953 ft 434 kts 208°
2026-04-20 21:35 41.46113 -2.54129 34966 ft 436 kts 208°
2026-04-20 21:35 41.40649 -2.57649 34968 ft 436 kts 208°
2026-04-20 21:36 41.35177 -2.61163 34971 ft 436 kts 207°
2026-04-20 21:36 41.32281 -2.62404 34933 ft 441 kts 191°
2026-04-20 21:36 41.29261 -2.62503 34972 ft 446 kts 180°
2026-04-20 21:37 41.23027 -2.62096 34968 ft 449 kts 180°
2026-04-20 21:37 41.16779 -2.61580 34968 ft 449 kts 180°
2026-04-20 21:38 41.10531 -2.61028 34970 ft 449 kts 179°
2026-04-20 21:38 41.04293 -2.60473 34966 ft 449 kts 179°
2026-04-20 21:39 40.98082 -2.59919 34971 ft 449 kts 179°
2026-04-20 21:39 40.91853 -2.59355 34966 ft 449 kts 179°
2026-04-20 21:40 40.85608 -2.58792 34961 ft 449 kts 179°
2026-04-20 21:40 40.79366 -2.58230 34964 ft 448 kts 179°
2026-04-20 21:41 40.73126 -2.57669 34967 ft 449 kts 179°
2026-04-20 21:41 40.66924 -2.57113 34963 ft 449 kts 179°
2026-04-20 21:42 40.60685 -2.56554 34962 ft 449 kts 179°
2026-04-20 21:42 40.54490 -2.56001 34964 ft 449 kts 179°
2026-04-20 21:43 40.48248 -2.55444 34968 ft 449 kts 179°
2026-04-20 21:43 40.42005 -2.54889 34959 ft 449 kts 179°
2026-04-20 21:44 40.35906 -2.55380 34959 ft 437 kts 201°
2026-04-20 21:44 40.30145 -2.58088 34960 ft 439 kts 202°
2026-04-20 21:45 40.24429 -2.60893 34954 ft 439 kts 203°
2026-04-20 21:45 40.18707 -2.63753 34955 ft 439 kts 203°
2026-04-20 21:46 40.13030 -2.66595 34956 ft 439 kts 203°
2026-04-20 21:46 40.07318 -2.69449 34961 ft 439 kts 203°
2026-04-20 21:47 40.01606 -2.72298 34958 ft 438 kts 203°
2026-04-20 21:47 39.95938 -2.75119 34951 ft 438 kts 203°
2026-04-20 21:48 39.90224 -2.77959 34959 ft 439 kts 203°
2026-04-20 21:48 39.84513 -2.80793 34961 ft 439 kts 203°
2026-04-20 21:49 39.78842 -2.83601 34956 ft 439 kts 203°
2026-04-20 21:49 39.73118 -2.86431 34954 ft 439 kts 202°
2026-04-20 21:50 39.68367 -2.88776 34955 ft 439 kts 202°
2026-04-20 21:50 39.61718 -2.92053 34947 ft 439 kts 202°
2026-04-20 21:51 39.56928 -2.94413 34948 ft 439 kts 202°
2026-04-20 21:51 39.51238 -2.97216 34943 ft 439 kts 203°
2026-04-20 21:52 39.45506 -3.00034 34945 ft 440 kts 203°
2026-04-20 21:52 39.39808 -3.02826 34947 ft 440 kts 202°
2026-04-20 21:53 39.34072 -3.05623 34945 ft 440 kts 202°
2026-04-20 21:53 39.28371 -3.08398 34937 ft 439 kts 202°
2026-04-20 21:54 39.22632 -3.11187 34948 ft 440 kts 202°
2026-04-20 21:54 39.16890 -3.13973 34950 ft 440 kts 202°
2026-04-20 21:55 39.11186 -3.16735 34946 ft 440 kts 202°
2026-04-20 21:55 39.05444 -3.19511 34951 ft 440 kts 202°
2026-04-20 21:56 38.99704 -3.22282 34943 ft 440 kts 202°
2026-04-20 21:56 38.93998 -3.25029 34953 ft 440 kts 202°
2026-04-20 21:57 38.88253 -3.27791 34957 ft 440 kts 202°
2026-04-20 21:57 38.82511 -3.30547 34948 ft 440 kts 202°
2026-04-20 21:58 38.76762 -3.33301 34961 ft 440 kts 202°
2026-04-20 21:58 38.71033 -3.36040 34957 ft 440 kts 202°
2026-04-20 21:59 38.65313 -3.38771 34958 ft 440 kts 202°
2026-04-20 21:59 38.59564 -3.41511 34954 ft 440 kts 202°
2026-04-20 22:00 38.53808 -3.44249 34961 ft 440 kts 202°
2026-04-20 22:00 38.48096 -3.46963 34962 ft 439 kts 202°
2026-04-20 22:01 38.42373 -3.49676 34964 ft 439 kts 202°
2026-04-20 22:01 38.36652 -3.52384 34960 ft 439 kts 202°
2026-04-20 22:02 38.30933 -3.55087 34950 ft 439 kts 201°
2026-04-20 22:02 38.25184 -3.57799 34951 ft 439 kts 201°
2026-04-20 22:03 38.19441 -3.60505 34946 ft 439 kts 201°
2026-04-20 22:03 38.13555 -3.62363 34940 ft 441 kts 182°
2026-04-20 22:04 38.07375 -3.62499 34939 ft 444 kts 183°
2026-04-20 22:04 38.01178 -3.62586 34948 ft 445 kts 182°
2026-04-20 22:05 37.95021 -3.62641 34931 ft 444 kts 182°
2026-04-20 22:05 37.91942 -3.62666 34276 ft 442 kts 182°
2026-04-20 22:05 37.88855 -3.62693 33493 ft 444 kts 182°
2026-04-20 22:05 37.85755 -3.62719 32691 ft 445 kts 182°
2026-04-20 22:06 37.82654 -3.62745 31943 ft 446 kts 182°
2026-04-20 22:06 37.79544 -3.62770 31171 ft 447 kts 182°
2026-04-20 22:06 37.76454 -3.62796 30354 ft 450 kts 182°
2026-04-20 22:06 37.73300 -3.62822 29190 ft 458 kts 182°
2026-04-20 22:07 37.70080 -3.62848 27927 ft 466 kts 182°
2026-04-20 22:07 37.66801 -3.62875 26700 ft 473 kts 182°
2026-04-20 22:07 37.63482 -3.62900 25531 ft 478 kts 182°
2026-04-20 22:07 37.60177 -3.62926 24475 ft 468 kts 182°
2026-04-20 22:08 37.56943 -3.62950 23352 ft 460 kts 182°
2026-04-20 22:08 37.53800 -3.62975 22158 ft 452 kts 182°
2026-04-20 22:08 37.50681 -3.62998 21023 ft 445 kts 182°
2026-04-20 22:08 37.47609 -3.63022 19971 ft 437 kts 182°
2026-04-20 22:09 37.44607 -3.62913 19199 ft 425 kts 174°
2026-04-20 22:09 37.41791 -3.61909 18542 ft 416 kts 157°
2026-04-20 22:09 37.39374 -3.60002 17909 ft 406 kts 141°
2026-04-20 22:09 37.37493 -3.57422 17280 ft 401 kts 126°
2026-04-20 22:10 37.36026 -3.54415 16805 ft 410 kts 121°
2026-04-20 22:10 37.34676 -3.51372 16576 ft 389 kts 120°
2026-04-20 22:10 37.33435 -3.48438 16367 ft 368 kts 119°
2026-04-20 22:10 37.32290 -3.45665 16202 ft 349 kts 119°
2026-04-20 22:11 37.31207 -3.43013 16035 ft 332 kts 118°
2026-04-20 22:11 37.30197 -3.40521 15883 ft 315 kts 118°
2026-04-20 22:11 37.29225 -3.38114 15726 ft 303 kts 118°
2026-04-20 22:11 37.28257 -3.35712 15549 ft 315 kts 118°
2026-04-20 22:12 37.27253 -3.33221 15407 ft 322 kts 118°
2026-04-20 22:12 37.26232 -3.30688 15263 ft 325 kts 118°
2026-04-20 22:12 37.25221 -3.28172 15132 ft 326 kts 118°
2026-04-20 22:12 37.24222 -3.25624 14808 ft 323 kts 118°
2026-04-20 22:13 37.23227 -3.23088 14575 ft 323 kts 118°
2026-04-20 22:13 37.22233 -3.20559 14288 ft 322 kts 118°
2026-04-20 22:13 37.21250 -3.18061 14001 ft 322 kts 118°
2026-04-20 22:13 37.20259 -3.15545 13693 ft 320 kts 118°
2026-04-20 22:14 37.19278 -3.13056 13380 ft 317 kts 118°
2026-04-20 22:14 37.18304 -3.10589 13086 ft 313 kts 118°
2026-04-20 22:14 37.17335 -3.08134 12818 ft 313 kts 118°
2026-04-20 22:14 37.16367 -3.05685 12542 ft 312 kts 118°
2026-04-20 22:15 37.15407 -3.03256 12260 ft 308 kts 118°
2026-04-20 22:15 37.14468 -3.00882 11986 ft 306 kts 118°
2026-04-20 22:15 37.13520 -2.98489 11725 ft 306 kts 117°
2026-04-20 22:15 37.12574 -2.96101 11452 ft 304 kts 118°
2026-04-20 22:16 37.11644 -2.93761 11186 ft 301 kts 118°
2026-04-20 22:16 37.10712 -2.91410 10904 ft 297 kts 117°
2026-04-20 22:16 37.09797 -2.89107 10632 ft 293 kts 118°
2026-04-20 22:16 37.08908 -2.86870 10354 ft 287 kts 117°
2026-04-20 22:17 37.08029 -2.84658 10137 ft 281 kts 118°
2026-04-20 22:17 37.07162 -2.82483 9926 ft 277 kts 118°
2026-04-20 22:17 37.06307 -2.80333 9631 ft 274 kts 117°
2026-04-20 22:17 37.05295 -2.78358 9398 ft 267 kts 138°
2026-04-20 22:18 37.03716 -2.77234 9115 ft 262 kts 167°
2026-04-20 22:18 37.01931 -2.76892 8884 ft 256 kts 172°
2026-04-20 22:18 37.00182 -2.76570 8660 ft 252 kts 172°
2026-04-20 22:18 36.98465 -2.76259 8431 ft 247 kts 172°
2026-04-20 22:19 36.96776 -2.75959 8214 ft 242 kts 173°
2026-04-20 22:19 36.95125 -2.75667 7989 ft 238 kts 173°
2026-04-20 22:19 36.93511 -2.75385 7895 ft 238 kts 173°
2026-04-20 22:19 36.91857 -2.75097 7894 ft 240 kts 173°
2026-04-20 22:20 36.90206 -2.74809 7890 ft 240 kts 173°
2026-04-20 22:20 36.88552 -2.74521 7845 ft 241 kts 173°
2026-04-20 22:20 36.86883 -2.74231 7496 ft 244 kts 173°
2026-04-20 22:20 36.85207 -2.73939 7154 ft 241 kts 173°
2026-04-20 22:21 36.83554 -2.73652 6754 ft 239 kts 172°
2026-04-20 22:21 36.81913 -2.73366 6356 ft 236 kts 172°
2026-04-20 22:21 36.80309 -2.73087 6022 ft 227 kts 172°
2026-04-20 22:21 36.78800 -2.72725 5745 ft 215 kts 158°
2026-04-20 22:22 36.77626 -2.71700 5410 ft 207 kts 130°
2026-04-20 22:22 36.76982 -2.70154 5111 ft 198 kts 103°
2026-04-20 22:22 36.76935 -2.68492 4841 ft 188 kts 81°
2026-04-20 22:22 36.77153 -2.66915 4583 ft 180 kts 79°
2026-04-20 22:23 36.77423 -2.65432 4358 ft 170 kts 76°
2026-04-20 22:23 36.77726 -2.64025 4144 ft 166 kts 74°
2026-04-20 22:23 36.78046 -2.62653 3937 ft 163 kts 73°
2026-04-20 22:23 36.78373 -2.61306 3750 ft 160 kts 73°
2026-04-20 22:24 36.78690 -2.60016 3535 ft 156 kts 73°
2026-04-20 22:24 36.79010 -2.58723 3349 ft 155 kts 72°
2026-04-20 22:24 36.79328 -2.57444 3154 ft 153 kts 72°
2026-04-20 22:24 36.79643 -2.56182 2966 ft 152 kts 73°
2026-04-20 22:25 36.79955 -2.54928 2749 ft 150 kts 73°
2026-04-20 22:25 36.80266 -2.53685 2549 ft 149 kts 73°
2026-04-20 22:25 36.80573 -2.52453 2348 ft 148 kts 72°
2026-04-20 22:25 36.80877 -2.51228 2151 ft 147 kts 72°
2026-04-20 22:26 36.81182 -2.50004 1956 ft 147 kts 72°
2026-04-20 22:26 36.81483 -2.48797 1766 ft 146 kts 72°
2026-04-20 22:26 36.81784 -2.47584 1569 ft 146 kts 72°
2026-04-20 22:27 36.82382 -2.45174 1172 ft 145 kts 72°
2026-04-20 22:27 36.82679 -2.43975 986 ft 144 kts 72°
2026-04-20 22:27 36.82970 -2.42798 793 ft 143 kts 72°
2026-04-20 22:27 36.83247 -2.41672 570 ft 128 kts 72°
2026-04-20 22:28 36.83509 -2.40604 391 ft 130 kts 72°
2026-04-20 22:28 36.83779 -2.39528 259 ft 130 kts 71°
2026-04-20 22:28 36.84054 -2.38453 71 ft 130 kts 73°
2026-04-20 22:28 36.84292 -2.37472 45 ft 100 kts 73°
2026-04-20 22:29 36.84442 -2.36844 46 ft 63 kts 73°
2026-04-20 22:29 36.84532 -2.36469 53 ft 32 kts 73°
2026-04-20 22:29 36.84607 -2.36157 58 ft 41 kts 73°
2026-04-20 22:29 36.84689 -2.35814 59 ft 33 kts 73°
2026-04-20 22:30 36.84758 -2.35540 57 ft 33 kts 72°
2026-04-20 22:30 36.84864 -2.35335 64 ft 26 kts
2026-04-20 22:30 36.84954 -2.35459 63 ft 8 kts 244°
2026-04-20 22:30 36.84930 -2.35534 65 ft 11 kts 251°
2026-04-20 22:31 36.84905 -2.35641 63 ft 14 kts 253°
2026-04-20 22:31 36.84873 -2.35773 61 ft 17 kts 253°
2026-04-20 22:31 36.84844 -2.35892 58 ft 13 kts 253°
2026-04-20 22:31 36.84824 -2.35971 57 ft 7 kts 253°
2026-04-20 22:32 36.84801 -2.36065 55 ft 15 kts 253°
2026-04-20 22:32 36.84768 -2.36200 52 ft 18 kts 253°
2026-04-20 22:32 36.84744 -2.36299 57 ft 12 kts 252°
2026-04-20 22:32 36.84717 -2.36407 54 ft 15 kts 253°
2026-04-20 22:33 36.84684 -2.36542 54 ft 18 kts 253°
2026-04-20 22:33 36.84645 -2.36700 52 ft 20 kts 253°
2026-04-20 22:33 36.84613 -2.36834 50 ft 12 kts 256°
2026-04-20 22:33 36.84641 -2.36934 49 ft 14 kts 303°
2026-04-20 22:34 36.84651 -2.36989 49 ft 0 kts 291°
2026-04-20 22:34 36.84678 -2.37021 48 ft 13 kts 321°
2026-04-20 22:34 36.84731 -2.37040 48 ft 0 kts 27°
2026-04-20 22:34 36.84733 -2.37039 48 ft 4 kts 30°
2026-04-20 22:35 36.84747 -2.37017 49 ft 1 kts 61°
2026-04-20 22:35 36.84751 -2.37009 49 ft 0 kts 70°
2026-04-20 22:35 36.84694 -2.37075 48 ft 0 kts 200°